[[{"header":{"parameterUnit":"m.s-1","parameterCategory":1,"la1":30.2991,"la2":30.254,"lo1":-89.0895,"lo2":-89.0444,"dy":0.0017,"dx":0.0017,"nx":28,"ny":28,"refTime":"2025-02-27T03:00:00:Z","depth":0,"parameterNumber":2,"parameterNumberName":"U-component_of_WINDS"},"data":[0,0,0,0,0,0,0,0,0,0,0,0,0,0,0,0,0,0,0,0,0,0,0,0,0,0,0,0,0,0,0,0,0,0,0,0,0,0,0,0,0,0,0,0,0,0,0,0,0,0,0,0,0,0,0,0,0,0,0.3524,0.3525,0,0.3607,0.3608,0.3609,0.3637,0.3637,0.3636,0.3636,0.3724,0.3726,0.3729,0,0,0,0,0,0,0,0,0,0,0,0,0,0.339,0.3392,0.3524,0.3525,0.3526,0.3607,0.3608,0.3609,0.3637,0.3637,0.3636,0.3636,0.3723,0.3726,0.3729,0,0,0,0,0,0,0,0,0,0,0,0,0,0.3458,0.3393,0.3523,0.3549,0.3553,0.3607,0.3608,0.361,0.3637,0.3637,0.3636,0.3636,0.3722,0.3725,0.3729,0.3764,0,0,0.3742,0.3743,0,0,0,0,0,0,0,0,0.3454,0.3463,0.3545,0.3548,0.3551,0.3611,0.3593,0.3662,0.3637,0.3605,0.3636,0.3635,0.3687,0.3693,0.371,0.3769,0.3772,0.3742,0.3744,0.3746,0.3747,0,0,0,0,0,0,0,0.3449,0.346,0.3557,0.3546,0.355,0.3557,0.3566,0.3606,0.3648,0.3608,0.361,0.362,0.3688,0.3706,0.3713,0.3774,0.3742,0.3745,0.3748,0.3749,0.3865,0.3866,0,0,0,0,0,0,0.344,0.3455,0.3554,0.3559,0.35,0.356,0.357,0.3592,0.3648,0.3655,0.362,0.3621,0.37,0.3708,0.3716,0.3761,0.3746,0.375,0.3752,0.3864,0.3865,0.3866,0,0,0,0,0,0,0.3437,0.3449,0.3551,0.3508,0.3522,0.3563,0.3588,0.3594,0.3612,0.3657,0.3664,0.3631,0.37,0.371,0.3752,0.3764,0.3752,0.3755,0.3864,0.3865,0.3866,0.3851,0,0,0,0,0,0,0.3433,0.3447,0.3461,0.3508,0.3524,0.3585,0.3588,0.3596,0.3619,0.3621,0.3669,0.3676,0.37,0.3746,0.3756,0.3769,0.3758,0.3863,0.3864,0.3865,0.385,0.3851,0.3852,0,0,0,0,0,0.3428,0.3454,0.3461,0.3473,0.3541,0.3586,0.3595,0.3621,0.362,0.3634,0.3662,0.3675,0.3761,0.375,0.3762,0.3776,0.3862,0.3864,0.3865,0.385,0.3851,0.3852,0,0,0,0,0,0,0.3408,0.346,0.3469,0.3511,0.3543,0.359,0.3609,0.3621,0.3656,0.3656,0.3688,0.3699,0.3738,0.3761,0.3748,0.3813,0.3812,0.3816,0.3797,0.3798,0.3799,0.3792,0.3762,0,0,0,0,0,0.3408,0.3439,0.3483,0.3516,0.3531,0.3567,0.3588,0.3605,0.3641,0.3655,0.3686,0.3721,0.3755,0.3778,0.3813,0.3853,0.3865,0.3869,0.387,0.387,0.3874,0.3897,0.39,0.3871,0.3871,0.3871,0,0,0.3408,0.3441,0.3459,0.3512,0.354,0.3572,0.3579,0.3612,0.3636,0.366,0.3701,0.3725,0.3766,0.3808,0.3827,0.3828,0.3884,0.3872,0.3872,0.3875,0.3899,0.3902,0.3904,0.3872,0.3872,0.3872,0,0,0.3426,0.3454,0.3484,0.3511,0.3552,0.3575,0.3582,0.3627,0.3644,0.3686,0.3704,0.3734,0.3793,0.3821,0.3844,0.3871,0.3884,0.3882,0.3886,0.3908,0.3911,0.3913,0.3923,0.3926,0.3885,0.3885,0.3885,0,0.3422,0.3471,0.3498,0.353,0.3553,0.3575,0.3606,0.3631,0.3682,0.3697,0.3697,0.3772,0.3801,0.3849,0.3856,0.3873,0.3883,0.3877,0.3908,0.3911,0.3913,0.3923,0.3927,0.3884,0.3884,0.3884,0.3884,0,0.3464,0.3497,0.3516,0.3564,0.3589,0.362,0.3653,0.3675,0.369,0.3714,0.3756,0.3791,0.3834,0.3846,0.3862,0.3897,0.3896,0.3902,0.3901,0.3915,0.3925,0.3929,0.3883,0.3884,0.3884,0.3884,0,0,0.3472,0.3533,0.354,0.3562,0.3608,0.3635,0.3667,0.3708,0.3726,0.376,0.3789,0.3838,0.3843,0.3868,0.3887,0.3907,0.3927,0.391,0.3912,0.3913,0.3969,0.3965,0.3969,0.3936,0.3937,0.3937,0.3965,0,0.3496,0.3554,0.3579,0.3627,0.3658,0.3679,0.3707,0.3739,0.3762,0.3792,0.3818,0.3853,0.3857,0.3872,0.3892,0.392,0.3939,0.3919,0.3963,0.3964,0.3953,0.3974,0.397,0.3995,0.397,0.397,0.3971,0,0.3532,0.3565,0.3615,0.3658,0.3672,0.3697,0.3736,0.3765,0.3802,0.3817,0.3844,0.3862,0.3898,0.3894,0.3944,0.393,0.3949,0.3966,0.3967,0.3973,0.3969,0.3981,0.4003,0.4007,0.3977,0.3977,0.3976,0,0.3533,0.3591,0.3628,0.3646,0.3697,0.3714,0.3736,0.3772,0.3795,0.3829,0.3844,0.3882,0.3903,0.3933,0.396,0.3955,0.4008,0.4007,0.4022,0.4021,0.4032,0.4031,0.4059,0.4044,0.4044,0.4044,0.4044,0,0.3558,0.3588,0.3629,0.3652,0.3686,0.3715,0.3748,0.3772,0.3804,0.3832,0.3853,0.3879,0.3914,0.3945,0.3967,0.4005,0.4014,0.4028,0.4034,0.4026,0.4025,0.404,0.4039,0.4045,0.4045,0.4045,0.4044,0,0.3565,0.3594,0.3636,0.368,0.3692,0.3715,0.3754,0.3777,0.3801,0.3836,0.3846,0.3884,0.3921,0.3952,0.4001,0.4016,0.4055,0.4062,0.4043,0.4046,0.406,0.4058,0.4099,0.4106,0.4085,0.4085,0.4085,0,0.3579,0.3602,0.3649,0.3669,0.3691,0.3723,0.3746,0.3775,0.3798,0.3842,0.386,0.3899,0.3931,0.399,0.4022,0.406,0.4068,0.4079,0.4074,0.4066,0.4068,0.4067,0.407,0.408,0.408,0.408,0.408,0,0.3601,0.3614,0.3646,0.3683,0.371,0.3741,0.3772,0.3788,0.3822,0.3848,0.3886,0.3911,0.3961,0.3999,0.404,0.4064,0.4078,0.4081,0.4087,0.408,0.4069,0.4076,0.4045,0.4081,0.4081,0.4081,0.4081,0.408,0.3613,0.3634,0.367,0.3706,0.3732,0.3761,0.3785,0.3811,0.3843,0.3886,0.3901,0.394,0.3976,0.4033,0.4056,0.4088,0.4089,0.4097,0.41,0.4101,0.4101,0.4063,0.4096,0.4096,0.4096,0.4096,0.4096,0,0.3636,0.366,0.3692,0.3735,0.3763,0.3773,0.3808,0.383,0.3864,0.3897,0.3928,0.3972,0.4009,0.4044,0.4083,0.4101,0.4109,0.4111,0.411,0.4115,0.4097,0.4088,0.4104,0.4104,0.4104,0.4104,0.4104,0.4104,0.3651,0.3689,0.3706,0.3757,0.3781,0.3819,0.3838,0.3865,0.3891,0.3939,0.397,0.3992,0.4025,0.4067,0.4101,0.4111,0.4124,0.4125,0.4136,0.4118,0.4117,0.4115,0.4108,0.4127,0.4127,0.4152,0.4152,0.4152]},{"header":{"parameterUnit":"m.s-1","parameterCategory":1,"la1":30.2991,"la2":30.254,"lo1":-89.0895,"lo2":-89.0444,"dy":0.0017,"dx":0.0017,"nx":28,"ny":28,"refTime":"2025-02-27T03:00:00:Z","depth":0,"parameterNumber":3,"parameterNumberName":"V-component_of_WINDS"},"data":[0,0,0,0,0,0,0,0,0,0,0,0,0,0,0,0,0,0,0,0,0,0,0,0,0,0,0,0,0,0,0,0,0,0,0,0,0,0,0,0,0,0,0,0,0,0,0,0,0,0,0,0,0,0,0,0,0,0,2.0271,2.0271,0,2.023,2.023,2.0229,2.0175,2.0174,2.0173,2.0172,2.0129,2.0129,2.0128,0,0,0,0,0,0,0,0,0,0,0,0,0,2.0302,2.0302,2.0271,2.0271,2.027,2.023,2.023,2.0229,2.0175,2.0174,2.0173,2.0172,2.0129,2.0129,2.0128,0,0,0,0,0,0,0,0,0,0,0,0,0,2.0278,2.0302,2.0271,2.0238,2.0235,2.023,2.023,2.0229,2.0175,2.0174,2.0173,2.0171,2.0129,2.0129,2.0128,2.0152,0,0,2.0127,2.0127,0,0,0,0,0,0,0,0,2.0279,2.0276,2.0244,2.0241,2.0237,2.0206,2.0224,2.0203,2.0176,2.0198,2.0172,2.0171,2.0156,2.0153,2.0148,2.015,2.0148,2.0127,2.0127,2.0126,2.0126,0,0,0,0,0,0,0,2.0281,2.0278,2.0255,2.0243,2.0239,2.0225,2.022,2.022,2.0185,2.0196,2.0192,2.0188,2.0154,2.0149,2.0147,2.0148,2.0127,2.0126,2.0126,2.0126,2.0166,2.0167,0,0,0,0,0,0,2.0288,2.028,2.0256,2.0254,2.0255,2.0226,2.022,2.0217,2.0185,2.0178,2.0189,2.0185,2.015,2.0147,2.0145,2.017,2.0126,2.0126,2.0126,2.0165,2.0166,2.0168,0,0,0,0,0,0,2.0288,2.0286,2.0258,2.0266,2.0261,2.0227,2.0224,2.0217,2.0212,2.0179,2.0173,2.0191,2.0149,2.0146,2.0151,2.0168,2.0126,2.0125,2.0163,2.0165,2.0167,2.0221,0,0,0,0,0,0,2.029,2.0287,2.0296,2.0266,2.0261,2.0265,2.0225,2.0218,2.0212,2.0207,2.0179,2.0173,2.0148,2.0152,2.015,2.0167,2.0125,2.0161,2.0164,2.0167,2.0218,2.0225,2.0231,0,0,0,0,0,2.0291,2.0312,2.0296,2.0294,2.0271,2.0266,2.0263,2.0233,2.0214,2.0222,2.0201,2.0174,2.0167,2.0153,2.0151,2.0167,2.016,2.0163,2.0166,2.0215,2.0224,2.0231,0,0,0,0,0,0,2.0344,2.0308,2.029,2.0302,2.0288,2.0257,2.0267,2.0243,2.0234,2.0229,2.0193,2.0187,2.0196,2.0182,2.0167,2.0188,2.0159,2.0162,2.0197,2.0205,2.0212,2.0215,2.0124,0,0,0,0,0,2.0358,2.0357,2.0325,2.0339,2.0333,2.0301,2.0298,2.0276,2.0259,2.0253,2.0232,2.0216,2.021,2.0207,2.0199,2.0216,2.0209,2.0226,2.0233,2.0238,2.0241,2.0248,2.0255,2.0178,2.0178,2.0178,0,0,2.0385,2.0365,2.0367,2.0349,2.0335,2.0335,2.0296,2.0297,2.0296,2.0253,2.0256,2.024,2.022,2.0231,2.0235,2.0219,2.0261,2.0242,2.0247,2.0246,2.0252,2.0259,2.0266,2.018,2.018,2.0179,0,0,2.0435,2.042,2.043,2.0417,2.0396,2.0375,2.0378,2.035,2.0338,2.0341,2.0308,2.0306,2.0297,2.0284,2.0276,2.0321,2.0296,2.0319,2.0354,2.0361,2.0367,2.0372,2.0388,2.0394,2.0322,2.0322,2.0322,0,2.0471,2.0469,2.0438,2.0441,2.0434,2.0395,2.0405,2.0393,2.0372,2.0368,2.0351,2.0338,2.0322,2.0329,2.034,2.0335,2.0336,2.0322,2.0369,2.0374,2.0378,2.0393,2.0399,2.0325,2.0325,2.0325,2.0324,0,2.0515,2.0515,2.0525,2.0505,2.05,2.0506,2.0475,2.0473,2.0452,2.0433,2.0436,2.0415,2.0403,2.0403,2.0382,2.0407,2.0398,2.0376,2.0346,2.0389,2.0402,2.0408,2.0329,2.0328,2.0327,2.0327,0,0,2.0598,2.056,2.0565,2.0555,2.053,2.0528,2.0533,2.0521,2.052,2.0506,2.0508,2.0501,2.048,2.0472,2.0449,2.0456,2.0492,2.0432,2.0431,2.0444,2.0517,2.0534,2.0541,2.0475,2.0476,2.0477,2.0519,0,2.0642,2.0648,2.062,2.0633,2.0632,2.0595,2.0598,2.0583,2.0565,2.0561,2.054,2.0536,2.0509,2.0503,2.0508,2.0487,2.0506,2.0483,2.0477,2.0477,2.0483,2.0548,2.0566,2.0607,2.0524,2.0525,2.0525,0,2.0695,2.0685,2.0698,2.0672,2.067,2.0674,2.0661,2.0658,2.0639,2.0625,2.0616,2.059,2.0592,2.0564,2.0566,2.0551,2.0546,2.0535,2.0536,2.0534,2.0504,2.0548,2.0619,2.0625,2.0533,2.0533,2.0532,0,2.0754,2.0743,2.0749,2.0742,2.0712,2.0715,2.0703,2.0683,2.0678,2.0666,2.0662,2.0651,2.0644,2.0636,2.0607,2.059,2.0613,2.0582,2.0601,2.0602,2.0607,2.0607,2.0679,2.0605,2.0605,2.0605,2.0605,0,2.0807,2.0816,2.0775,2.0779,2.0789,2.0756,2.0766,2.0749,2.0732,2.0732,2.0699,2.0699,2.0662,2.0658,2.0635,2.064,2.0638,2.0626,2.062,2.0629,2.0631,2.0626,2.0622,2.0606,2.0606,2.0606,2.0605,0,2.0873,2.0846,2.0851,2.0822,2.0815,2.0823,2.0797,2.08,2.078,2.078,2.0778,2.0746,2.074,2.071,2.0697,2.0682,2.0694,2.0682,2.0701,2.0697,2.0717,2.0715,2.0787,2.0795,2.0717,2.0718,2.0719,0,2.0909,2.0915,2.0887,2.0885,2.0874,2.087,2.0865,2.0833,2.0828,2.0807,2.0812,2.0803,2.0794,2.0786,2.0761,2.075,2.0738,2.0764,2.0736,2.0745,2.0738,2.0738,2.0738,2.077,2.0771,2.0772,2.0772,0,2.0975,2.0961,2.0954,2.0943,2.0938,2.0927,2.0915,2.0915,2.0879,2.0875,2.0869,2.0862,2.0848,2.084,2.0825,2.0811,2.0786,2.0781,2.0785,2.0794,2.0805,2.0799,2.0717,2.078,2.0779,2.0779,2.0778,2.0778,2.1027,2.1031,2.1011,2.1005,2.0992,2.0982,2.0982,2.0962,2.0956,2.0943,2.0924,2.092,2.0901,2.0878,2.0867,2.0862,2.0848,2.0854,2.0855,2.0857,2.0861,2.0806,2.086,2.0859,2.0859,2.0859,2.0859,0,2.1091,2.1076,2.1071,2.1055,2.105,2.1027,2.1012,2.1009,2.1006,2.099,2.0982,2.0974,2.0966,2.0941,2.0929,2.0931,2.0919,2.0929,2.0928,2.0925,2.0875,2.0873,2.0939,2.0939,2.0939,2.0939,2.0939,2.0939,2.1123,2.1129,2.1113,2.1112,2.1097,2.1093,2.1086,2.1076,2.1063,2.1056,2.1049,2.1033,2.1013,2.1,2.0991,2.0984,2.0981,2.0995,2.0984,2.0937,2.0929,2.0922,2.092,2.0995,2.0995,2.1035,2.1035,2.1035]}]]